Miscellaneous Local Product
Issued by NWS North Platte, NE

Home | Current Version | Previous Version | Graphics & Text | Print | Product List | Glossary On
Versions: 1 2 3 4 5 6 7 8 9 10 11 12 13 14 15 16 17 18 19 20 21 22 23 24 25 26 27 28 29 30 31 32 33 34 35 36 37 38 39 40 41 42 43 44 45 46 47 48 49 50
674
AXUS43 KLBF 191110
MISLBF


WESTERN AND NORTH CENTRAL NEBRASKA HOURLY WEATHER ROUNDUP
NATIONAL WEATHER SERVICE NORTH PLATTE NE
500 AM CST SUN FEB 19 2017

NOTE: "FAIR" INDICATES FEW OR NO CLOUDS BELOW 12,000 FEET WITH NO
SIGNIFICANT WEATHER AND/OR OBSTRUCTIONS TO VISIBILITY.

NOTE: STATIONS NOT REPORTING VARIABLES SUCH AS SKY/WEATHER OR
PRESSURE ARE PROVIDED BY RAWS AND APRS NETWORKS AND ARE NOT UNDER
NATIONAL WEATHER SERVICE QUALITY CONTROL.

...OBSERVATIONS IN AND NEAR THE EASTERN PANHANDLE OF NEBRASKA...

CITY           SKY/WX    TMP DP  RH WIND       PRES   REMARKS
PINE RIDGE     CLOUDY    44  34  67 VRB3      29.60S
CHADRON        CLOUDY    43  31  62 SW5       29.60S
ALLIANCE       CLOUDY    34  28  79 S8        29.61F WCI  27
SIDNEY         CLOUDY    36  24  62 NW9       29.64R WCI  29
CRESCENT LAKE    N/A     42  32  67 S9          N/A
$$

...OBSERVATIONS IN NORTHERN NEBRASKA AND FAR SOUTHERN SOUTH DAKOTA...

CITY           SKY/WX    TMP DP  RH WIND       PRES   REMARKS
WINNER         FAIR      52  37  56 S21       29.65F
VALENTINE      PTCLDY    48  35  60 S7        29.66F
THEDFORD       PTCLDY    47  37  67 S10       29.69S
AINSWORTH      CLOUDY    42  35  78 S12       29.69S
O`NEILL        PTCLDY    40  34  78 SE8       29.74S WCI  35
ORD            CLOUDY    34  29  82 E3        29.76S
BROKEN BOW     PTCLDY    36  32  85 CALM      29.75S
VALENTINE NWR    N/A     39  33  79 S8          N/A  WCI  33
HALSEY           N/A     46  36  67 S9G16       N/A
CHAMBERS         N/A     41  35  79 S3          N/A
EWING            N/A     38  34  85 CALM        N/A
$$

...OBSERVATIONS IN SOUTHWEST NEBRASKA AND FAR NORTHEAST COLORADO...

CITY           SKY/WX    TMP DP  RH WIND       PRES   REMARKS
HOLYOKE        FAIR      45  32  61 S6        29.66R
IMPERIAL       CLOUDY    50  33  52 S16       29.67F
OGALLALA       CLOUDY    47  34  60 E6        29.66S
NORTH PLATTE   PTCLDY    46  35  65 E8        29.70F
MCCOOK         CLOUDY    48  38  68 S9        29.73F
LEXINGTON      PTCLDY    45  38  77 S10       29.76S
STAPLETON        N/A     40  35  81 CALM        N/A
GOTHENBURG       N/A     47  37  68 S6          N/A
CALLAWAY         N/A     38  35  88 S12         N/A  WCI  30
$$

...OBSERVATIONS IN CENTRAL LINCOLN COUNTY AREA...

CITY           SKY/WX    TMP DP  RH WIND       PRES   REMARKS
N.P. AIRPORT   PTCLDY    46  35  65 E8        29.70F
N.P. DOWNTOWN    N/A     47  37  67 E3          N/A
N.P. SOUTHEAST   N/A     46  36  67 E3          N/A
N.P. HILLCREST   N/A     48  37  67 SE12        N/A
$$

...SOME OBSERVATIONS FROM AROUND THE REGION...

CITY           SKY/WX    TMP DP  RH WIND       PRES   REMARKS
LARAMIE        CLOUDY    23  21  92 S7        29.73S WCI  15
CHEYENNE       CLOUDY    36  25  64 W12       29.67R WCI  28
DENVER         CLOUDY    42  23  46 S15       29.65S
AKRON          CLEAR     50  27  40 S16       29.64S
SCOTTSBLUFF    CLOUDY    34  27  75 NE5       29.63S WCI  30
RAPID CITY     PTCLDY    39  30  70 SE5       29.57S
BISMARCK       CLOUDY    35  32  88 E8        29.62F WCI  29
PIERRE         CLOUDY    40  32  73 SE8       29.63F WCI  34
SIOUX FALLS    CLOUDY    40  36  86 SE5       29.81S
OMAHA          PTCLDY    43  33  68 SE8       29.86R
GRAND ISLAND   CLEAR     49  46  90 S12       29.80S
KANSAS CITY    PTCLDY    46  46 100 S8        29.93R FOG
WICHITA        CLOUDY    46  45  96 SE8       29.87F FOG
OKLAHOMA CITY  CLOUDY    54  54 100 SE13      29.84S FOG
DALLAS         CLOUDY    60  57  89 E8        29.84S
AMARILLO       FOG       43  43 100 E10       29.81S VSB 1/4
DODGE CITY     CLOUDY    42  42 100 S9        29.81S FOG
HAYS           LGT RAIN  43  41  93 NE6       29.83S VSB 1
GOODLAND       CLOUDY    46  35  65 S18       29.69S
$$




USA.gov is the U.S. government's official web portal to all federal, state and local government web resources and services.